Terug naar catalogus

SL-12 R/B(2)

ActiefGEO
NORAD 14394·ROCKET BODY·🇷🇺 Russia

Gelanceerd Sep 29, 1983 vanaf Baikonur Cosmodrome

Loading…

TLE

VersSource: Space-Track

Epoch: Sep 14, 2026, 12:27 UTC

1 14394U 83100F   26257.51934053  .00000092  00000-0  00000-0 0  9996
2 14394   7.0572 302.0025 0018663 165.0878 270.4952  1.01049470157924

Volg SL-12 R/B(2) in realtime met AllMySat

Download on the App Store